When you browse on this site, cookies collect data to enhance your experience and personalize the content and advertising you see.
Visit our Privacy Policy to learn more. By continuing to use the site, you agree to this use of cookies and data.
  • In Austria
  • List of Countries
  • For 7 days
  • Water Temperature
  • Weather Map
  • News
  • Weather Widgets
  • user-avatar
    Login

    Hourly Weather Paratebueno

    Today, 17 November, Sunday

    Time Temperature Precipitation Wind Pressure Humidity
    00:00 +24°C° 0.8 mm 1 mps 735 mmHg 93%
    01:00 +24°C° 0 mm 1 mps 735 mmHg 94%
    02:00 +24°C° 0.1 mm 1 mps 735 mmHg 93%
    03:00 +24°C° 0.1 mm 1 mps 735 mmHg 93%
    04:00 +24°C° 0.1 mm 1 mps 735 mmHg 92%
    05:00 +22°C° 0 mm 0 mps 735 mmHg 91%
    06:00 +23°C° 0 mm 0 mps 736 mmHg 90%
    07:00 +24°C° 0 mm 0 mps 736 mmHg 89%
    08:00 +27°C° 0 mm 1 mps 736 mmHg 83%
    09:00 +29°C° 0 mm 1 mps 736 mmHg 77%
    10:00 +31°C° 0 mm 1 mps 736 mmHg 71%
    11:00 +31°C° 0.1 mm 1 mps 735 mmHg 69%
    12:00 +32°C° 0.1 mm 1 mps 734 mmHg 67%
    13:00 +32°C° 0.1 mm 2 mps 733 mmHg 66%
    14:00 +32°C° 0.2 mm 1 mps 733 mmHg 69%
    15:00 +31°C° 0.2 mm 1 mps 733 mmHg 73%
    16:00 +29°C° 0.2 mm 0 mps 732 mmHg 76%
    17:00 +27°C° 0.2 mm 0 mps 733 mmHg 80%
    18:00 +28°C° 0.2 mm 1 mps 734 mmHg 84%
    19:00 +26°C° 0.2 mm 1 mps 734 mmHg 87%
    20:00 +26°C° 0.3 mm 1 mps 735 mmHg 89%
    21:00 +25°C° 0.3 mm 1 mps 735 mmHg 90%
    22:00 +25°C° 0.3 mm 1 mps 736 mmHg 91%
    23:00 +25°C° 0.7 mm 1 mps 735 mmHg 91%

    Tomorrow, 18 November, Monday

    Time Temperature Precipitation Wind Pressure Humidity
    00:00 +25°C° 0.7 mm 1 mps 735 mmHg 92%
    01:00 +24°C° 0.7 mm 1 mps 735 mmHg 92%
    02:00 +24°C° 0.2 mm 1 mps 735 mmHg 92%
    03:00 +24°C° 0.2 mm 1 mps 735 mmHg 92%
    04:00 +24°C° 0.2 mm 1 mps 735 mmHg 92%
    05:00 +24°C° 0.6 mm 1 mps 735 mmHg 91%
    06:00 +23°C° 0.6 mm 0 mps 736 mmHg 91%
    07:00 +23°C° 0.6 mm 0 mps 736 mmHg 90%
    08:00 +27°C° 0.9 mm 1 mps 736 mmHg 88%
    09:00 +28°C° 0.9 mm 1 mps 736 mmHg 85%
    10:00 +30°C° 0.9 mm 1 mps 737 mmHg 82%
    11:00 +30°C° 1.2 mm 1 mps 736 mmHg 80%
    12:00 +31°C° 1.2 mm 1 mps 735 mmHg 78%
    13:00 +31°C° 1.2 mm 1 mps 734 mmHg 76%
    14:00 +31°C° 1.5 mm 1 mps 734 mmHg 80%
    15:00 +30°C° 1.5 mm 1 mps 733 mmHg 83%
    16:00 +28°C° 1.5 mm 0 mps 733 mmHg 86%
    17:00 +26°C° 0.6 mm 0 mps 734 mmHg 88%
    18:00 +27°C° 0.6 mm 1 mps 734 mmHg 89%
    19:00 +26°C° 0.6 mm 1 mps 735 mmHg 91%
    20:00 +25°C° 0.4 mm 1 mps 736 mmHg 91%
    21:00 +25°C° 0.4 mm 1 mps 736 mmHg 92%
    22:00 +25°C° 0.4 mm 1 mps 736 mmHg 92%
    23:00 +24°C° 1.1 mm 1 mps 736 mmHg 93%

    Day after tomorrow, 19 November, Tuesday

    Time Temperature Precipitation Wind Pressure Humidity
    00:00 +24°C° 1.1 mm 1 mps 736 mmHg 93%
    01:00 +24°C° 1.1 mm 1 mps 736 mmHg 94%
    02:00 +24°C° 0.2 mm 1 mps 736 mmHg 93%
    03:00 +24°C° 0.2 mm 1 mps 736 mmHg 93%
    04:00 +24°C° 0.2 mm 1 mps 736 mmHg 92%
    05:00 +24°C° 0 mm 1 mps 736 mmHg 91%
    06:00 +25°C° 0 mm 1 mps 737 mmHg 90%
    07:00 +25°C° 0 mm 1 mps 737 mmHg 89%
    08:00 +27°C° 0.2 mm 1 mps 737 mmHg 84%
    09:00 +29°C° 0.2 mm 1 mps 737 mmHg 79%
    10:00 +30°C° 0.2 mm 1 mps 738 mmHg 73%
    11:00 +31°C° 0.5 mm 1 mps 737 mmHg 72%
    12:00 +31°C° 0.5 mm 1 mps 736 mmHg 71%
    13:00 +31°C° 0.5 mm 1 mps 735 mmHg 70%
    14:00 +31°C° 0.5 mm 1 mps 735 mmHg 74%
    15:00 +30°C° 0.5 mm 1 mps 735 mmHg 78%
    16:00 +30°C° 0.5 mm 1 mps 734 mmHg 82%
    17:00 +28°C° 0 mm 1 mps 735 mmHg 84%
    18:00 +27°C° 0 mm 1 mps 735 mmHg 85%
    19:00 +26°C° 0 mm 1 mps 736 mmHg 87%
    20:00 +25°C° 0 mm 1 mps 736 mmHg 87%
    21:00 +25°C° 0 mm 1 mps 736 mmHg 86%
    22:00 +25°C° 0 mm 1 mps 737 mmHg 86%
    23:00 +24°C° 0 mm 1 mps 736 mmHg 85%

    20 November, Wednesday

    Time Temperature Precipitation Wind Pressure Humidity
    00:00 +24°C° 0 mm 1 mps 736 mmHg 83%
    01:00 +24°C° 0 mm 1 mps 736 mmHg 82%
    02:00 +24°C° 0 mm 1 mps 736 mmHg 81%
    03:00 +24°C° 0 mm 1 mps 736 mmHg 81%
    04:00 +24°C° 0 mm 1 mps 736 mmHg 80%
    05:00 +22°C° 0.1 mm 0 mps 737 mmHg 81%
    06:00 +23°C° 0.1 mm 0 mps 737 mmHg 82%
    07:00 +23°C° 0.1 mm 0 mps 738 mmHg 83%
    08:00 +27°C° 0.1 mm 1 mps 738 mmHg 79%
    09:00 +29°C° 0.1 mm 1 mps 738 mmHg 75%
    10:00 +31°C° 0.1 mm 1 mps 738 mmHg 70%
    11:00 +31°C° 0.3 mm 2 mps 737 mmHg 71%
    12:00 +31°C° 0.3 mm 2 mps 736 mmHg 71%
    13:00 +31°C° 0.3 mm 2 mps 736 mmHg 71%
    14:00 +31°C° 0.9 mm 2 mps 735 mmHg 76%
    15:00 +30°C° 0.9 mm 1 mps 735 mmHg 82%
    16:00 +30°C° 0.9 mm 1 mps 734 mmHg 87%
    17:00 +28°C° 0.7 mm 1 mps 735 mmHg 88%
    18:00 +27°C° 0.7 mm 1 mps 735 mmHg 90%
    19:00 +25°C° 0.7 mm 1 mps 736 mmHg 91%
    20:00 +25°C° 0.8 mm 1 mps 736 mmHg 92%
    21:00 +25°C° 0.8 mm 1 mps 737 mmHg 93%
    22:00 +24°C° 0.8 mm 1 mps 737 mmHg 93%
    23:00 +24°C° 0.3 mm 1 mps 737 mmHg 93%

    21 November, Thursday

    Time Temperature Precipitation Wind Pressure Humidity
    00:00 +24°C° 0.3 mm 1 mps 736 mmHg 93%
    01:00 +24°C° 0.3 mm 1 mps 736 mmHg 93%
    02:00 +23°C° 0.1 mm 1 mps 736 mmHg 92%
    03:00 +23°C° 0.1 mm 1 mps 736 mmHg 92%
    04:00 +23°C° 0.1 mm 1 mps 736 mmHg 92%
    05:00 +24°C° 0.6 mm 1 mps 737 mmHg 92%
    06:00 +24°C° 0.6 mm 1 mps 737 mmHg 92%
    07:00 +25°C° 0.6 mm 1 mps 738 mmHg 92%
    08:00 +26°C° 0.6 mm 1 mps 738 mmHg 89%
    09:00 +26°C° 0.6 mm 0 mps 738 mmHg 85%
    10:00 +27°C° 0.6 mm 0 mps 738 mmHg 82%
    11:00 +30°C° 0.4 mm 1 mps 737 mmHg 79%
    12:00 +30°C° 0.4 mm 1 mps 736 mmHg 75%
    13:00 +31°C° 0.4 mm 1 mps 735 mmHg 72%
    14:00 +31°C° 0.1 mm 1 mps 735 mmHg 74%
    15:00 +31°C° 0.1 mm 1 mps 734 mmHg 77%
    16:00 +28°C° 0.1 mm 0 mps 734 mmHg 79%
    17:00 +29°C° 0.7 mm 1 mps 734 mmHg 83%
    18:00 +27°C° 0.7 mm 1 mps 735 mmHg 87%
    19:00 +26°C° 0.7 mm 1 mps 735 mmHg 91%
    20:00 +26°C° 1.3 mm 1 mps 736 mmHg 92%
    21:00 +25°C° 1.3 mm 1 mps 736 mmHg 93%
    22:00 +25°C° 1.3 mm 1 mps 737 mmHg 94%
    23:00 +25°C° 1 mm 1 mps 736 mmHg 95%

    22 November, Friday

    Time Temperature Precipitation Wind Pressure Humidity
    00:00 +25°C° 1 mm 1 mps 736 mmHg 95%
    01:00 +25°C° 1 mm 1 mps 736 mmHg 96%
    02:00 +24°C° 0.5 mm 1 mps 736 mmHg 95%
    03:00 +24°C° 0.5 mm 1 mps 736 mmHg 94%
    04:00 +24°C° 0.5 mm 1 mps 735 mmHg 93%
    05:00 +24°C° 0.2 mm 1 mps 736 mmHg 93%
    06:00 +25°C° 0.2 mm 1 mps 737 mmHg 92%
    07:00 +25°C° 0.2 mm 1 mps 737 mmHg 91%
    08:00 +26°C° 0.1 mm 1 mps 737 mmHg 86%
    09:00 +28°C° 0.1 mm 1 mps 737 mmHg 80%
    10:00 +29°C° 0.1 mm 1 mps 737 mmHg 75%
    11:00 +30°C° 0.1 mm 1 mps 737 mmHg 73%
    12:00 +31°C° 0.1 mm 1 mps 736 mmHg 72%
    13:00 +31°C° 0.1 mm 2 mps 735 mmHg 70%
    14:00 +31°C° 0.2 mm 1 mps 734 mmHg 74%
    15:00 +30°C° 0.2 mm 1 mps 734 mmHg 78%
    16:00 +30°C° 0.2 mm 1 mps 733 mmHg 82%
    17:00 +29°C° 0.5 mm 1 mps 734 mmHg 85%
    18:00 +27°C° 0.5 mm 1 mps 734 mmHg 88%
    19:00 +26°C° 0.5 mm 1 mps 735 mmHg 91%
    20:00 +25°C° 0 mm 1 mps 735 mmHg 91%
    21:00 +25°C° 0 mm 1 mps 735 mmHg 91%
    22:00 +25°C° 0 mm 1 mps 736 mmHg 91%
    23:00 +25°C° 0 mm 1 mps 736 mmHg 91%
    Show more